This demonstration page uses our WeatherBlox Daily Observations layout. Learn more.

Left ArrowRight Arrow

36.17497, -115.13722

Hourly Observations for July 8, 2017

Temp ( °F °C ) Dew Point ( °F °C ) Humidity (%) Winds ( mph kmh ) Pressure ( in mb ) Visibility ( mi km ) Precip ( " mm )
12:53 am 00:53 Clear 98 36.7 37 2.8 12 12 NW 10 17 29.81 1009 10 16 N/A
1:53 am 01:53 Clear 99 37.2 36 2.2 11 11 NNW 8 13 29.79 1009 10 16 N/A
2:53 am 02:53 Clear 98 36.7 36 2.2 11 11 N 10 17 29.80 1009 10 16 N/A
3:53 am 03:53 Clear 95 35 37 2.8 13 13 NE 6 9 29.82 1010 10 16 N/A
4:53 am 04:53 Clear 92 33.3 39 3.9 16 16 NNW 3 6 29.83 1010 10 16 N/A
5:53 am 05:53 Sunny 92 33.3 42 5.6 18 18 NW 3 6 29.85 1011 10 16 N/A
6:53 am 06:53 Sunny 91 32.8 41 5 17 17 N N/A 29.87 1011 10 16 N/A
7:53 am 07:53 Sunny 97 36.1 40 4.4 14 14 N N/A 29.88 1012 10 16 N/A
8:53 am 08:53 Sunny 101 38.3 38 3.3 11 11 SE 7 11 29.88 1012 10 16 N/A
9:53 am 09:53 Sunny 102 38.9 38 3.3 11 11 ESE 9 15 29.88 1012 10 16 N/A
10:53 am 10:53 Sunny 105 40.6 37 2.8 10 10 ESE 7 11 29.88 1012 10 16 N/A
11:53 am 11:53 Sunny 106 41.1 37 2.8 9 9 VRB 5 7 29.85 1011 10 16 N/A
12:53 pm 12:53 Sunny 108 42.2 36 2.2 8 8 VRB 6 9 29.83 1010 10 16 N/A
1:53 pm 13:53 Sunny 109 42.8 36 2.2 8 8 VRB 5 7 29.80 1009 10 16 N/A
2:53 pm 14:53 Sunny 111 43.9 34 1.1 7 7 undefined N/A 29.78 1008 10 16 N/A
3:29 pm 15:29 Sunny with Nearby Thunderstorms 110 43.3 36 2.2 8 8 S 9 15 29.59 1002 10 16 N/A
3:44 pm 15:44 Sunny 110 43.3 37 2.8 8 8 SSW 14 22 29.59 1002 10 16 N/A
3:53 pm 15:53 Sunny 110 43.3 38 3.3 9 9 SSW 18 30 29.75 1008 10 16 N/A
4:53 pm 16:53 Sunny 110 43.3 38 3.3 9 9 WSW 20 31 29.75 1007 10 16 N/A
5:53 pm 17:53 Sunny 109 42.8 38 3.3 9 9 W 15 24 29.75 1007 10 16 N/A
6:53 pm 18:53 Sunny 108 42.2 38 3.3 9 9 NW 8 13 29.75 1007 10 16 N/A
7:53 pm 19:53 Sunny 107 41.7 38 3.3 9 9 NW 3 6 29.75 1008 10 16 N/A
8:53 pm 20:53 Clear 103 39.4 42 5.6 12 12 E 17 28 29.78 1008 10 16 N/A
9:07 pm 21:07 Mostly Clear 103 39.4 43 6.1 13 13 ESE 17 28 29.65 1004 10 16 N/A
9:53 pm 21:53 Clear 101 38.3 45 7.2 15 15 SE 12 19 29.81 1010 10 16 N/A
10:53 pm 22:53 Clear 100 37.8 46 7.8 16 16 S 21 33 29.85 1011 10 16 N/A
11:53 pm 23:53 Clear 96 35.6 50 10 21 21 VRB 6 9 29.92 1013 10 16 N/A

Powered by AerisWeather